Location: Ełk
(53.8214°N, 22.3622°E)
Time: 07:17:20
(UTC+02:00)

ISS - Pass Details

Date: 29 January 2019
Orbit: 411 x 421 km, 51.6° (Epoch: 16 October)

Event Time Altitude Azimuth Distance (km) Brightness Sun altitude
Rises 16:42:51 0° 230° (SW) 2,364 1.8 -5.8°
Reaches altitude 10° 16:45:04 10° 220° (SW) 1,503 0.2 -6.1°
Maximum altitude 16:48:06 31° 156° (SSE) 765 -2.4 -6.5°
Drops below altitude 10° 16:51:09 10° 92° (E) 1,511 -1.5 -6.9°
Enters shadow 16:51:35 - 89° (E) 1,675 -1.3 -7.0°
